Location: Adair
(33.3137°N, 90.0906°W)
Time: 00:11:50
(UTC+00:00)

ISS - Pass Details

Date: 10 May 2026
Orbit: 415 x 423 km, 51.6° (Epoch: 10 June)

Event Time Altitude Azimuth Distance (km) Brightness Sun altitude
Rises 01:35:09 0° 231° (SW) 2,340 0.4 -9.5°
Reaches altitude 10° 01:37:15 10° 235° (SW) 1,480 -0.6 -9.9°
Maximum altitude 01:40:32 64° 318° (NW) 460 -3.3 -10.5°
Drops below altitude 10° 01:43:51 10° 40° (NE) 1,486 -1.1 -11.1°
Enters shadow 01:51:08 -15° 47° (NE) 4,464 1.3 -12.4°
